Regional Weather Roundup
Issued by NWS

Home | Current Version | Previous Version | Text Only | Print | Product List | Glossary On
Versions: 1 2 3 4 5 6 7 8 9 10 11 12 13 14 15 16 17 18 19 20 21 22 23 24 25 26 27 28 29 30 31 32 33 34 35 36 37 38 39 40 41 42 43 44 45 46 47 48 49 50
000
ASHW40 PHFO 230343
RWRHI

WEATHER ROUNDUP FOR HAWAII
NATIONAL WEATHER SERVICE HONOLULU HI
500 PM HST MON MAY 22 2017

THIS IS AN AUTOMATED REPORT THAT HAS NOT BEEN QUALITY CONTROLLED.

NOTE..."FAIR" INDICATES FEW OR NO CLOUDS BELOW 12,000 FEET WITH NO
SIGNIFICANT WEATHER AND/OR OBSTRUCTIONS TO VISIBILITY.

* - THESE SITES REPORT LIMITED FIELDS

HIZ001>004-230400-
KAUAI-NIIHAU-

CITY           SKY/WX    TMP DP  RH WIND       PRES   REMARKS
LIHUE APT      MOSUNNY   81  67  62 NE18      30.05F
PORT ALLEN*      N/A     82 N/A N/A E21G31      N/A
POIPU*           N/A     81 N/A N/A NE10G22     N/A
PRINCEVILLE*     N/A     79 N/A N/A E12G21      N/A
KOKOLE POINT*  NOT AVBL
MOLOAA DAIRY*    N/A     81  66  61 E7G15       N/A
WAIMEA HTS*      N/A     81  57  44 E17G30      N/A
PUU OPAE*      NOT AVBL
PUU LUA*       NOT AVBL
MAKAHA RIDGE*    N/A     79  54  41 NE8G17      N/A
$$

HIZ005>011-230400-
OAHU-

CITY           SKY/WX    TMP DP  RH WIND       PRES   REMARKS
HONOLULU       MOSUNNY   84  61  45 NE18      30.01S
KALAELOA       MOSUNNY   84  60  44 NE13G23   30.01S
KANEOHE MCB    MOSUNNY   81  67  62 NE17      30.00
WHEELER FIELD  FAIR      78  62  58 NE16      30.03R
BELLOWS*         N/A    N/A N/A N/A NE22        N/A
KAHUKU*          N/A    N/A N/A N/A NE9G20      N/A
WHEELER*         N/A    N/A N/A N/A NE10G20     N/A
WAIANAE HARBOR   N/A    N/A N/A N/A E12G23      N/A
DILLINGHAM*      N/A     79  61  53 SW12G21     N/A
KAHUKU TRN*      N/A     81  68  65 W12G25      N/A
KAWAILOA*        N/A     75  64  69 NE12G23     N/A
KII*             N/A     79  64  61 NE17G24     N/A
MAKUA RANGE*     N/A     72  52  49 SW15G28     N/A
OAHU FOREST NW   N/A    N/A N/A N/A NE13G24     N/A
SCHOFIELD BRK*   N/A     64  50  59 MISG        N/A
SCHOFIELD S*   NOT AVBL
WAIANAE VLY*     N/A     84  68  58 SW3G18      N/A
KUAOKALA*        N/A     75  63  64 N15G28      N/A
HONOULIUULI*   NOT AVBL
MOKUOLOE IS*   NOT AVBL
PALEHUA*         N/A     66  57  72 NE12G24     N/A
WAIAWA PHB*    NOT AVBL
$$

HIZ012>013-230400-
MOLOKAI-

CITY           SKY/WX    TMP DP  RH WIND       PRES   REMARKS
MOLOKAI AIRPT  RAIN      76  68  76 NE16G25   30.03S
KALAUPAPA      NOT AVBL
MAKAPULAPAI*     N/A     75  66  73 E18G29      N/A
MOLOKAI 1*     NOT AVBL
PUU ALII*        N/A     61  60  97 N3G12       N/A
$$

HIZ016-230400-
KAHOOLAWE-

CITY           SKY/WX    TMP DP  RH WIND       PRES   REMARKS
KAHOOLAWE*     NOT AVBL
HAKIOAWA*        N/A     77  64  63 MISG      30.42S
HONOKANAIA*      N/A     81  60  48 E17G31    29.93S
KANELOA*         N/A     79  63  57 E21G35    30.05F
KEALIALALO*    NOT AVBL
LUA MAKIKA*    NOT AVBL
$$

HIZ014>015-230400-
LANAI-

CITY           SKY/WX    TMP DP  RH WIND       PRES   REMARKS
LANAI CITY     FAIR      76  60  57 NE18G28   30.03S
LANAI 1*       NOT AVBL
$$

HIZ017>028-230400-
MAUI-

CITY           SKY/WX    TMP DP  RH WIND       PRES   REMARKS
KAHULUI        MOSUNNY   81  64  56 NE26      29.99S
KAPALUA-W MAUI MOSUNNY   81  63  54 NE13G21   30.01
HANA AIRPORT   PTSUNNY   79  66  65 E3        30.06S
HANA*            N/A     79 N/A N/A E7          N/A
HALEAKALA SUMM   N/A     50 N/A N/A E24         N/A
MAALAEA BAY*     N/A     81 N/A N/A N23G35      N/A
HALEAKALA*     NOT AVBL
KAUPO GAP*     NOT AVBL
KULA 1*          N/A     58  52  81 N5G12       N/A
$$

HIZ023>026-230400-
BIG ISLAND OF HAWAII COAST AND LOWER SLOPES-

CITY           SKY/WX    TMP DP  RH WIND       PRES   REMARKS
KAILUA KONA    CLOUDY    81  67  62 S10       29.95R
HILO           LGT RAIN  76  68  76 N8        30.02S
HONOKAA*         N/A     73 N/A N/A VRB1        N/A
KAWAIHAE MWT*    N/A     84 N/A N/A W9G16       N/A
KAWAIHAE*        N/A     81 N/A N/A W10       29.95R
SOUTH POINT*     N/A     73 N/A N/A N15G23      N/A
UPOLU AIRPORT* NOT AVBL
KAMUELA*       NOT AVBL
HAKALAU*         N/A     52  51  96 NE6G12      N/A
KALOKO-HONOKO* NOT AVBL
PALI 2*          N/A     68  57  68 SW21G33     N/A
KEALAKOMO*       N/A     75  68  78 NE13G29     N/A
KAUPULEHU*       N/A     81  57  44 NE16G25     N/A
KAPAPALA*        N/A     75  60  60 NE10G28     N/A
LOWER KAHUKU*    N/A     61  59  94 N2G10       N/A
PUHE CS*         N/A     84  66  54 W5G12       N/A
PUHO CS*         N/A     79  64  60 SW2         N/A
PTA KEAMUKU*     N/A     68  55  64 CALM        N/A
WAIKOLOA*        N/A     79  59  50 NE15G37     N/A
$$

HIZ027>028-230400-
BIG ISLAND OF HAWAII INTERIOR AND SUMMMITS-

CITY           SKY/WX    TMP DP  RH WIND       PRES   REMARKS
BRADSHAW FIELD CLOUDY    65  49  57 S8G18     30.27S
MK VISITOR CEN   N/A     55  36  47 N12         N/A
MAUNA KEA*       N/A     41  -9  11 E1          N/A
MAUNA LOA*       N/A     55 -18   4 MISG        N/A
MAUNA LOA 1*   NOT AVBL
PTA KIPUKA*      N/A     70  59  68 W9G16       N/A
PTA RANGE 17*    N/A     66  46  48 SE12G21     N/A
PTA WEST*        N/A     68  52  56 W10G18      N/A
NENE CABIN*    NOT AVBL
AHUMOA*          N/A     61  52  72 SW7G18      N/A
PTA PORTABLE*  NOT AVBL
PUU MALI*        N/A     57  50  77 E20G35      N/A
$$

HIC003-230400-
NORTHWEST ISLANDS-

CITY           SKY/WX    TMP DP  RH WIND       PRES   REMARKS
MIDWAY ISLAND  NOT AVBL
MIDWAY NOS*      N/A     72 N/A N/A MISG      30.26F
FRENCH FRIGATE NOT AVBL
$$

PHZ110>124-180-230400-
BUOY REPORTS

STATION/POSITION TIME  TEMP    WIND        PRES    WAVE   SWELL
                       AIR SEA DIR/SP/G            HT/PER HT/DIR
                 (UTC) (F)     (DEG/KT/KT) (MB)    (FT/S) (FT/D)
BUOY 51001       0330   75 77   50/ 21/ 25 1019.3R
BUOY 51101       0250   75 77   40/ 23/ 27 1019.3F  10/ 8   5/340
BUOY 51100       NOT AVBL
BUOY 51002       0330   78 78   70/ 17/ 21 1013.0S
BUOY 51003       0250   78 80   40/ 14/ 17 1014.3S   6/14   5/140
BUOY 51004       0250      78   50/ 16/ 17 1013.7F   6/14   3/280
BARBERS PT BUOY  NOT AVBL
WAIMEA BAY BUOY  0302      78                N/A     7/12   5/330
KAILUA BAY BUOY  0304      79                N/A     7/ 6   2/350
LANAI BUOY       NOT AVBL
BARBERS PT 2     NOT AVBL
PAUWELA MAUI     0309      78                N/A     6/12   3/330
HILO             NOT AVBL
KANEOHE BAY BUOY 0325      79                N/A     7/12   3/350
HANALEI KAUAI    0322      79                N/A     8/12   3/320
KAHULUI HARBOR   0318   78 80   50/ 13/ 21 1016.2
HONOLULU HARBOR  0318   80 80   60/ 10/ 15 1016.9
KILO NALU        NOT AVBL
HILO HARBOR      0318   76 77  310/  6/  9 1016.1
MOKUOLOE         0236   79 80   60/ 17/ 20 1016.9F
NAWILIWILI       0318   78      50/ 13/ 17 1016.9
WHOTS BUOY       NOT AVBL
BUOY 51028       NOT AVBL
$$

......................KEY........................................
  SKY/WX - SKY CONDITIONS/PRESENT WEATHER
  TMP    - TEMPERATURE IN FAHRENHEIT
  DWPT   - DEWPOINT IN FAHRENHEIT
  RH     - RELATIVE HUMIDITY IN PERCENT
  WIND   - DIRECTION AND SPEED /MPH FOR ISLANDS...KTS FOR BUOYS/
  PRES   - MEAN SEA LEVEL PRESSURE IN INCHES OF HG
  VSB    - VISIBILITY IN MILES
  HX     - HEAT INDEX
  WCI    - WIND CHILL INDEX
  VRB    - VARIABLE WIND DIRECTION
  N/A    - NOT AVAILABLE



USA.gov is the U.S. government's official web portal to all federal, state and local government web resources and services.